Terminal Aerodrome Forecast
Issued by NWS

Home | Current Version | Previous Version | Text Only | Print | Product List | Glossary On
Versions: 1 2 3 4 5 6 7 8 9 10 11 12 13 14 15 16 17 18 19 20 21 22 23 24 25 26 27 28 29 30 31 32 33 34 35 36 37 38 39 40 41 42 43 44 45 46 47 48 49 50
000
FTUS43 KMKX 250827 AAA
TAFUES
TAF AMD
KUES 250827Z 2508/2606 27010G17KT P6SM SCT015 OVC025
     FM251200 25010KT P6SM BKN015
     FM251800 22011G18KT P6SM BKN015
     FM251900 22011G18KT P6SM BKN050
     FM252300 20009KT P6SM SCT250=

USA.gov is the U.S. government's official web portal to all federal, state and local government web resources and services.